,,,PA_Meas_PMT16A,,PR_Meas_QMR101_102,,RH_Meas_QMH101,,SR_Meas_QMS101,,TA_Meas_QMH101,,GenWind,,GenWind,
date,time,status,PA,status,PR,status,RH,status,SR,status,TA,status,DirAvg,status,SpdAvg,
2010-12-03, 00:00:04,VALID,1007.25,VALID,0,VALID,103.809,VALID,0,VALID,24.5106,VALID,86,VALID,0.348828,
2010-12-03, 00:01:04,VALID,1007.23,VALID,0,VALID,103.809,VALID,0,VALID,24.5125,VALID,86,VALID,0.444922,
2010-12-03, 00:02:04,VALID,1007.24,VALID,0,VALID,103.817,VALID,0,VALID,24.5106,VALID,82,VALID,0.392188,
2010-12-03, 00:03:04,VALID,1007.21,VALID,0,VALID,103.802,VALID,0,VALID,24.5106,VALID,82,VALID,0.321875,
2010-12-03, 00:04:04,VALID,1007.22,VALID,0,VALID,103.817,VALID,0,VALID,24.5106,VALID,82,VALID,0.348828,
2010-12-03, 00:05:04,VALID,1007.24,VALID,0,VALID,103.802,VALID,0.105969,VALID,24.5106,VALID,82,VALID,0.376172,
2010-12-03, 00:06:04,VALID,1007.24,VALID,0,VALID,103.809,VALID,0.105969,VALID,24.5106,VALID,82,VALID,0,
2010-12-03, 00:07:04,VALID,1007.27,VALID,0,VALID,103.809,VALID,0,VALID,24.4911,VALID,82,VALID,0,
2010-12-03, 00:08:04,VALID,1007.23,VALID,0,VALID,103.825,VALID,0.105969,VALID,24.532,VALID,82,VALID,0,
2010-12-03, 00:09:04,VALID,1007.26,VALID,0,VALID,103.794,VALID,0,VALID,24.5125,VALID,82,VALID,0,
2010-12-03, 00:10:04,VALID,1007.24,VALID,0,VALID,103.802,VALID,0,VALID,24.5125,VALID,82,VALID,0,
2010-12-03, 00:11:04,VALID,1007.25,VALID,0,VALID,103.817,VALID,0,VALID,24.5125,VALID,82,VALID,0,
2010-12-03, 00:12:04,VALID,1007.23,VALID,0,VALID,103.817,VALID,0,VALID,24.493,VALID,89,VALID,0.440234,
2010-12-03, 00:13:04,VALID,1007.22,VALID,0,VALID,103.817,VALID,0,VALID,24.5125,VALID,114,VALID,0.577734,
2010-12-03, 00:14:04,VALID,1007.2,VALID,0,VALID,103.825,VALID,0,VALID,24.5533,VALID,114,VALID,0.666016,
2010-12-03, 00:15:04,VALID,1007.22,VALID,0,VALID,103.84,VALID,0,VALID,24.532,VALID,114,VALID,0.494141,
2010-12-03, 00:16:04,VALID,1007.22,VALID,0,VALID,103.832,VALID,0,VALID,24.5515,VALID,97,VALID,0.3,
2010-12-03, 00:17:04,VALID,1007.21,VALID,0,VALID,103.817,VALID,0,VALID,24.5515,VALID,97,VALID,0.164453,
2010-12-03, 00:18:04,VALID,1007.2,VALID,0,VALID,103.832,VALID,0,VALID,24.5515,VALID,97,VALID,0.480078,
2010-12-03, 00:19:04,VALID,1007.2,VALID,0,VALID,103.84,VALID,0,VALID,24.5515,VALID,52,VALID,0.748047,
2010-12-03, 00:20:04,VALID,1007.18,VALID,0,VALID,103.809,VALID,0,VALID,24.5515,VALID,62,VALID,0.687109,
2010-12-03, 00:21:04,VALID,1007.19,VALID,0,VALID,103.794,VALID,0,VALID,24.5515,VALID,62,VALID,0.232422,
2010-12-03, 00:22:04,VALID,1007.17,VALID,0,VALID,103.802,VALID,0,VALID,24.5515,VALID,51,VALID,0.438281,
2010-12-03, 00:23:04,VALID,1007.13,VALID,0,VALID,103.779,VALID,0,VALID,24.5125,VALID,38,VALID,0.494922,
2010-12-03, 00:24:04,VALID,1007.09,VALID,0,VALID,103.748,VALID,0,VALID,24.5301,VALID,38,VALID,0.0328125,
2010-12-03, 00:25:04,VALID,1007.04,VALID,0,VALID,103.718,VALID,0,VALID,24.5106,VALID,38,VALID,0,
2010-12-03, 00:26:04,VALID,1007.01,VALID,0,VALID,103.733,VALID,0.105969,VALID,24.4911,VALID,38,VALID,0,
2010-12-03, 00:27:04,VALID,1006.98,VALID,0,VALID,103.718,VALID,0,VALID,24.4911,VALID,38,VALID,0,
2010-12-03, 00:28:04,VALID,1006.98,VALID,0,VALID,103.695,VALID,0,VALID,24.493,VALID,38,VALID,0,
2010-12-03, 00:29:04,VALID,1006.96,VALID,0,VALID,103.718,VALID,0,VALID,24.493,VALID,38,VALID,0,
2010-12-03, 00:30:04,VALID,1006.94,VALID,0,VALID,103.726,VALID,0.105969,VALID,24.4717,VALID,38,VALID,0.427734,
2010-12-03, 00:31:04,VALID,1006.92,VALID,0,VALID,103.718,VALID,0,VALID,24.4522,VALID,38,VALID,0.178906,
2010-12-03, 00:32:04,VALID,1006.91,VALID,0,VALID,103.741,VALID,0,VALID,24.4522,VALID,38,VALID,0,
2010-12-03, 00:33:04,VALID,1006.9,VALID,0,VALID,103.756,VALID,0.105969,VALID,24.4327,VALID,38,VALID,0,
2010-12-03, 00:34:04,VALID,1006.91,VALID,0,VALID,103.741,VALID,0,VALID,24.3937,VALID,38,VALID,0,
2010-12-03, 00:35:04,VALID,1006.88,VALID,0,VALID,103.756,VALID,0.105969,VALID,24.415,VALID,38,VALID,0,
2010-12-03, 00:36:04,VALID,1006.88,VALID,0,VALID,103.771,VALID,0,VALID,24.3742,VALID,38,VALID,0,
2010-12-03, 00:37:04,VALID,1006.88,VALID,0,VALID,103.771,VALID,0,VALID,24.3547,VALID,38,VALID,0,
2010-12-03, 00:38:04,VALID,1006.89,VALID,0,VALID,103.779,VALID,0,VALID,24.3352,VALID,38,VALID,0,
2010-12-03, 00:39:04,VALID,1006.86,VALID,0,VALID,103.794,VALID,0,VALID,24.3352,VALID,38,VALID,0,
2010-12-03, 00:40:04,VALID,1006.85,VALID,0,VALID,103.794,VALID,0,VALID,24.3352,VALID,38,VALID,0,
2010-12-03, 00:41:04,VALID,1006.83,VALID,0,VALID,103.809,VALID,0.105969,VALID,24.3547,VALID,38,VALID,0.167578,
2010-12-03, 00:42:04,VALID,1006.79,VALID,0,VALID,103.809,VALID,0,VALID,24.3547,VALID,38,VALID,0.164844,
2010-12-03, 00:43:04,VALID,1006.79,VALID,0,VALID,103.809,VALID,0.105969,VALID,24.3547,VALID,60,VALID,0.318359,
2010-12-03, 00:44:04,VALID,1006.76,VALID,0,VALID,103.825,VALID,0,VALID,24.3547,VALID,60,VALID,0.286719,
2010-12-03, 00:45:04,VALID,1006.74,VALID,0,VALID,103.832,VALID,0,VALID,24.3352,VALID,60,VALID,0.00195313,
2010-12-03, 00:46:04,VALID,1006.73,VALID,0,VALID,103.809,VALID,0,VALID,24.3547,VALID,60,VALID,0,
2010-12-03, 00:47:04,VALID,1006.7,VALID,0,VALID,103.832,VALID,0,VALID,24.3956,VALID,60,VALID,0,
2010-12-03, 00:48:04,VALID,1006.71,VALID,0,VALID,103.84,VALID,0.105969,VALID,24.3547,VALID,60,VALID,0.14375,
2010-12-03, 00:49:04,VALID,1006.65,VALID,0,VALID,103.84,VALID,0.105969,VALID,24.3352,VALID,60,VALID,0,
2010-12-03, 00:50:04,VALID,1006.61,VALID,0,VALID,103.84,VALID,0.105969,VALID,24.3547,VALID,60,VALID,0.0117188,
2010-12-03, 00:51:04,VALID,1006.63,VALID,0,VALID,103.848,VALID,0,VALID,24.3761,VALID,60,VALID,0.155469,
2010-12-03, 00:52:04,VALID,1006.61,VALID,0,VALID,103.832,VALID,0,VALID,24.3761,VALID,60,VALID,0.0382813,
2010-12-03, 00:53:04,VALID,1006.59,VALID,0,VALID,103.825,VALID,0.105969,VALID,24.3547,VALID,60,VALID,0,
2010-12-03, 00:54:04,VALID,1006.59,VALID,0,VALID,103.84,VALID,0,VALID,24.3547,VALID,60,VALID,0.240625,
2010-12-03, 00:55:04,VALID,1006.58,VALID,0,VALID,103.855,VALID,0.105969,VALID,24.3547,VALID,60,VALID,0.121875,
2010-12-03, 00:56:04,VALID,1006.59,VALID,0,VALID,103.832,VALID,0,VALID,24.3566,VALID,60,VALID,0.415234,
2010-12-03, 00:57:04,VALID,1006.59,VALID,0,VALID,103.825,VALID,0.105969,VALID,24.3529,VALID,60,VALID,0.251563,
2010-12-03, 00:58:04,VALID,1006.6,VALID,0,VALID,103.832,VALID,0,VALID,24.3761,VALID,60,VALID,0,
2010-12-03, 00:59:04,VALID,1006.6,VALID,0,VALID,103.825,VALID,0,VALID,24.3742,VALID,60,VALID,0.0550781,
2010-12-03, 01:00:04,VALID,1006.6,VALID,0,VALID,103.817,VALID,0,VALID,24.3742,VALID,60,VALID,0.180859,
2010-12-03, 01:01:04,VALID,1006.64,VALID,0,VALID,103.809,VALID,0,VALID,24.3956,VALID,60,VALID,0.149219,
2010-12-03, 01:02:04,VALID,1006.63,VALID,0,VALID,103.825,VALID,0,VALID,24.415,VALID,60,VALID,0,
2010-12-03, 01:03:04,VALID,1006.65,VALID,0,VALID,103.817,VALID,0,VALID,24.4132,VALID,60,VALID,0.0105469,
2010-12-03, 01:04:04,VALID,1006.68,VALID,0,VALID,103.825,VALID,0,VALID,24.4132,VALID,60,VALID,0,
2010-12-03, 01:05:04,VALID,1006.65,VALID,0,VALID,103.84,VALID,0,VALID,24.4345,VALID,60,VALID,0,
2010-12-03, 01:06:04,VALID,1006.7,VALID,0,VALID,103.817,VALID,0.105969,VALID,24.4327,VALID,60,VALID,0,
2010-12-03, 01:07:04,VALID,1006.72,VALID,0,VALID,103.832,VALID,0.105969,VALID,24.4327,VALID,60,VALID,0,
2010-12-03, 01:08:04,VALID,1006.7,VALID,0,VALID,103.809,VALID,0,VALID,24.4327,VALID,60,VALID,0,
2010-12-03, 01:09:04,VALID,1006.7,VALID,0,VALID,103.809,VALID,0,VALID,24.4522,VALID,60,VALID,0,
2010-12-03, 01:10:04,VALID,1006.71,VALID,0,VALID,103.825,VALID,0.105969,VALID,24.4717,VALID,60,VALID,0,
2010-12-03, 01:11:04,VALID,1006.74,VALID,0,VALID,103.802,VALID,0,VALID,24.4717,VALID,60,VALID,0,
2010-12-03, 01:12:04,VALID,1006.75,VALID,0,VALID,103.809,VALID,0.105969,VALID,24.4717,VALID,60,VALID,0,
2010-12-03, 01:13:04,VALID,1006.72,VALID,0,VALID,103.84,VALID,0.105969,VALID,24.4522,VALID,60,VALID,0.591797,
2010-12-03, 01:14:04,VALID,1006.72,VALID,0,VALID,103.825,VALID,0,VALID,24.4717,VALID,60,VALID,0.361719,
2010-12-03, 01:15:04,VALID,1006.72,VALID,0,VALID,103.848,VALID,0.105969,VALID,24.493,VALID,60,VALID,0.485547,
2010-12-03, 01:16:04,VALID,1006.69,VALID,0,VALID,103.848,VALID,0.105969,VALID,24.4911,VALID,60,VALID,0.153125,
2010-12-03, 01:17:04,VALID,1006.68,VALID,0,VALID,103.825,VALID,0.105969,VALID,24.4911,VALID,60,VALID,0.263281,
2010-12-03, 01:18:04,VALID,1006.66,VALID,0,VALID,103.855,VALID,0.105969,VALID,24.5106,VALID,60,VALID,0.380078,
2010-12-03, 01:19:04,VALID,1006.64,VALID,0,VALID,103.84,VALID,0.105969,VALID,24.5106,VALID,60,VALID,0.213281,
2010-12-03, 01:20:04,VALID,1006.58,VALID,0,VALID,103.825,VALID,0.105969,VALID,24.5301,VALID,60,VALID,0,
2010-12-03, 01:21:04,VALID,1006.55,VALID,0,VALID,103.84,VALID,0.105969,VALID,24.5301,VALID,60,VALID,0.454297,
2010-12-03, 01:22:04,VALID,1006.55,VALID,0,VALID,103.848,VALID,0,VALID,24.5106,VALID,60,VALID,0.0894531,
2010-12-03, 01:23:04,VALID,1006.51,VALID,0,VALID,103.863,VALID,0.105969,VALID,24.5301,VALID,60,VALID,0.2375,
2010-12-03, 01:24:04,VALID,1006.45,VALID,0,VALID,103.832,VALID,0,VALID,24.532,VALID,60,VALID,0,
2010-12-03, 01:25:04,VALID,1006.46,VALID,0,VALID,103.855,VALID,0,VALID,24.5106,VALID,60,VALID,0,
2010-12-03, 01:26:04,VALID,1006.42,VALID,0,VALID,103.848,VALID,0,VALID,24.5125,VALID,60,VALID,0,
2010-12-03, 01:27:04,VALID,1006.42,VALID,0,VALID,103.825,VALID,0,VALID,24.532,VALID,60,VALID,0,
2010-12-03, 01:28:04,VALID,1006.37,VALID,0,VALID,103.817,VALID,0,VALID,24.5728,VALID,60,VALID,0,
2010-12-03, 01:29:04,VALID,1006.36,VALID,0,VALID,103.825,VALID,0,VALID,24.532,VALID,60,VALID,0,
2010-12-03, 01:30:04,VALID,1006.34,VALID,0,VALID,103.84,VALID,0,VALID,24.532,VALID,60,VALID,0.30625,
2010-12-03, 01:31:04,VALID,1006.34,VALID,0,VALID,103.825,VALID,0,VALID,24.5125,VALID,60,VALID,0.405859,
2010-12-03, 01:32:04,VALID,1006.31,VALID,0,VALID,103.825,VALID,0,VALID,24.4735,VALID,60,VALID,0.229297,
2010-12-03, 01:33:04,VALID,1006.32,VALID,0,VALID,103.832,VALID,0,VALID,24.4735,VALID,60,VALID,0.377344,
2010-12-03, 01:34:04,VALID,1006.29,VALID,0,VALID,103.855,VALID,0,VALID,24.454,VALID,60,VALID,0.481641,
2010-12-03, 01:35:04,VALID,1006.3,VALID,0,VALID,103.825,VALID,0,VALID,24.454,VALID,60,VALID,0.255469,
2010-12-03, 01:36:04,VALID,1006.27,VALID,0,VALID,103.825,VALID,0,VALID,24.454,VALID,60,VALID,0.408594,
2010-12-03, 01:37:04,VALID,1006.26,VALID,0,VALID,103.832,VALID,0,VALID,24.4345,VALID,60,VALID,0.299219,
2010-12-03, 01:38:04,VALID,1006.26,VALID,0,VALID,103.825,VALID,0,VALID,24.4345,VALID,60,VALID,0.24375,
2010-12-03, 01:39:04,VALID,1006.24,VALID,0,VALID,103.84,VALID,0,VALID,24.4345,VALID,60,VALID,0.485156,
2010-12-03, 01:40:04,VALID,1006.19,VALID,0,VALID,103.832,VALID,0,VALID,24.4345,VALID,60,VALID,0.3,
2010-12-03, 01:41:04,VALID,1006.17,VALID,0,VALID,103.848,VALID,0,VALID,24.4345,VALID,60,VALID,0,
2010-12-03, 01:42:04,VALID,1006.14,VALID,0,VALID,103.84,VALID,0,VALID,24.4345,VALID,60,VALID,0,
2010-12-03, 01:43:04,VALID,1006.11,VALID,0,VALID,103.825,VALID,0,VALID,24.4345,VALID,60,VALID,0.377734,
2010-12-03, 01:44:04,VALID,1006.08,VALID,0,VALID,103.84,VALID,0,VALID,24.3956,VALID,60,VALID,0.180469,
2010-12-03, 01:45:04,VALID,1006.07,VALID,0,VALID,103.817,VALID,0,VALID,24.3956,VALID,60,VALID,0.107813,
2010-12-03, 01:46:04,VALID,1006.07,VALID,0,VALID,103.832,VALID,0,VALID,24.3956,VALID,60,VALID,0.305859,
2010-12-03, 01:47:04,VALID,1006.06,VALID,0,VALID,103.84,VALID,0,VALID,24.3956,VALID,60,VALID,0.232422,
2010-12-03, 01:48:04,VALID,1006.07,VALID,0,VALID,103.832,VALID,0,VALID,24.3956,VALID,60,VALID,0.150391,
2010-12-03, 01:49:04,VALID,1006.08,VALID,0,VALID,103.832,VALID,0,VALID,24.3956,VALID,60,VALID,0.333594,
2010-12-03, 01:50:04,VALID,1006.11,VALID,0,VALID,103.848,VALID,0,VALID,24.3761,VALID,60,VALID,0.281641,
2010-12-03, 01:51:04,VALID,1006.07,VALID,0,VALID,103.855,VALID,0,VALID,24.3742,VALID,60,VALID,0.357812,
2010-12-03, 01:52:04,VALID,1006.07,VALID,0,VALID,103.848,VALID,0,VALID,24.3956,VALID,60,VALID,0.0289063,
2010-12-03, 01:53:04,VALID,1006.06,VALID,0,VALID,103.855,VALID,0,VALID,24.3956,VALID,60,VALID,0.30625,
2010-12-03, 01:54:04,VALID,1006.06,VALID,0,VALID,103.863,VALID,0,VALID,24.3761,VALID,60,VALID,0.433203,
2010-12-03, 01:55:04,VALID,1006.07,VALID,0,VALID,103.87,VALID,0,VALID,24.3761,VALID,60,VALID,0.192969,
2010-12-03, 01:56:04,VALID,1006.08,VALID,0,VALID,103.848,VALID,0,VALID,24.3566,VALID,60,VALID,0.121484,
2010-12-03, 01:57:04,VALID,1006.04,VALID,0,VALID,103.84,VALID,0,VALID,24.3566,VALID,60,VALID,0.389062,
2010-12-03, 01:58:04,VALID,1006.02,VALID,0,VALID,103.84,VALID,0,VALID,24.3566,VALID,60,VALID,0.200781,
2010-12-03, 01:59:04,VALID,1005.99,VALID,0,VALID,103.84,VALID,0,VALID,24.3566,VALID,60,VALID,0,
2010-12-03, 02:00:04,VALID,1005.99,VALID,0,VALID,103.84,VALID,0,VALID,24.3566,VALID,60,VALID,0,
2010-12-03, 02:01:04,VALID,1005.93,VALID,0,VALID,103.825,VALID,0,VALID,24.3761,VALID,60,VALID,0,
2010-12-03, 02:02:04,VALID,1005.92,VALID,0,VALID,103.825,VALID,0,VALID,24.3566,VALID,60,VALID,0,
2010-12-03, 02:03:04,VALID,1005.89,VALID,0,VALID,103.832,VALID,0,VALID,24.3761,VALID,60,VALID,0.457031,
2010-12-03, 02:04:04,VALID,1005.85,VALID,0,VALID,103.832,VALID,0,VALID,24.3761,VALID,103,VALID,0.500781,
2010-12-03, 02:05:04,VALID,1005.8,VALID,0,VALID,103.817,VALID,0,VALID,24.3566,VALID,103,VALID,0.414844,
2010-12-03, 02:06:04,VALID,1005.79,VALID,0,VALID,103.809,VALID,0,VALID,24.3761,VALID,103,VALID,0.328125,
2010-12-03, 02:07:04,VALID,1005.78,VALID,0,VALID,103.817,VALID,0,VALID,24.3761,VALID,103,VALID,0.353516,
2010-12-03, 02:08:04,VALID,1005.79,VALID,0,VALID,103.817,VALID,0,VALID,24.3761,VALID,103,VALID,0.144922,
2010-12-03, 02:09:04,VALID,1005.77,VALID,0,VALID,103.809,VALID,0.105969,VALID,24.3742,VALID,103,VALID,0.644922,
2010-12-03, 02:10:04,VALID,1005.78,VALID,0,VALID,103.832,VALID,0.105969,VALID,24.3547,VALID,103,VALID,0.757813,
2010-12-03, 02:11:04,VALID,1005.78,VALID,0,VALID,103.817,VALID,0.105969,VALID,24.3547,VALID,103,VALID,0.811719,
2010-12-03, 02:12:04,VALID,1005.84,VALID,0,VALID,103.825,VALID,0.105969,VALID,24.3547,VALID,102,VALID,0.623438,
2010-12-03, 02:13:04,VALID,1005.81,VALID,0,VALID,103.832,VALID,0.105969,VALID,24.3742,VALID,102,VALID,0.342578,
2010-12-03, 02:14:04,VALID,1005.79,VALID,0,VALID,103.848,VALID,0.105969,VALID,24.3742,VALID,144,VALID,0.835156,
2010-12-03, 02:15:04,VALID,1005.78,VALID,0,VALID,103.855,VALID,0.105969,VALID,24.3742,VALID,163,VALID,0.555469,
2010-12-03, 02:16:04,VALID,1005.79,VALID,0,VALID,103.84,VALID,0.105969,VALID,24.3547,VALID,163,VALID,0.645312,
2010-12-03, 02:17:04,VALID,1005.74,VALID,0,VALID,103.878,VALID,0,VALID,24.3158,VALID,163,VALID,0.639063,
2010-12-03, 02:18:04,VALID,1005.76,VALID,0,VALID,103.893,VALID,0.105969,VALID,24.2963,VALID,127,VALID,0.753125,
2010-12-03, 02:19:04,VALID,1005.75,VALID,0,VALID,103.878,VALID,0.105969,VALID,24.2768,VALID,142,VALID,0.8125,
2010-12-03, 02:20:04,VALID,1005.73,VALID,0,VALID,103.878,VALID,0,VALID,24.2768,VALID,134,VALID,0.539063,
2010-12-03, 02:21:04,VALID,1005.7,VALID,0,VALID,103.893,VALID,0.105969,VALID,24.2591,VALID,134,VALID,0.644531,
2010-12-03, 02:22:04,VALID,1005.69,VALID,0,VALID,103.87,VALID,0.105969,VALID,24.2573,VALID,134,VALID,0.340234,
2010-12-03, 02:23:04,VALID,1005.69,VALID,0,VALID,103.863,VALID,0.105969,VALID,24.2378,VALID,134,VALID,0.125,
2010-12-03, 02:24:04,VALID,1005.66,VALID,0,VALID,103.87,VALID,0.105969,VALID,24.2396,VALID,134,VALID,0.354688,
2010-12-03, 02:25:04,VALID,1005.63,VALID,0,VALID,103.87,VALID,0.105969,VALID,24.2183,VALID,134,VALID,0.059375,
2010-12-03, 02:26:04,VALID,1005.62,VALID,0,VALID,103.87,VALID,0.105969,VALID,24.2183,VALID,134,VALID,0.0046875,
2010-12-03, 02:27:04,VALID,1005.62,VALID,0,VALID,103.863,VALID,0,VALID,24.2378,VALID,134,VALID,0.419531,
2010-12-03, 02:28:04,VALID,1005.58,VALID,0,VALID,103.863,VALID,0.105969,VALID,24.1988,VALID,134,VALID,0.46875,
2010-12-03, 02:29:04,VALID,1005.58,VALID,0,VALID,103.848,VALID,0,VALID,24.2378,VALID,134,VALID,0.261328,
2010-12-03, 02:30:04,VALID,1005.54,VALID,0,VALID,103.84,VALID,0,VALID,24.2378,VALID,134,VALID,0.223828,
2010-12-03, 02:31:04,VALID,1005.53,VALID,0,VALID,103.848,VALID,0.105969,VALID,24.2591,VALID,134,VALID,0.334766,
2010-12-03, 02:32:04,VALID,1005.52,VALID,0,VALID,103.863,VALID,0,VALID,24.2396,VALID,134,VALID,0.216406,
2010-12-03, 02:33:04,VALID,1005.51,VALID,0,VALID,103.863,VALID,0,VALID,24.2183,VALID,134,VALID,0.166016,
2010-12-03, 02:34:04,VALID,1005.48,VALID,0,VALID,103.863,VALID,0.105969,VALID,24.2183,VALID,134,VALID,0,
2010-12-03, 02:35:04,VALID,1005.47,VALID,0,VALID,103.863,VALID,0,VALID,24.1988,VALID,134,VALID,0,
2010-12-03, 02:36:04,VALID,1005.46,VALID,0,VALID,103.909,VALID,0.105969,VALID,24.2202,VALID,134,VALID,0,
2010-12-03, 02:37:04,VALID,1005.46,VALID,0,VALID,103.893,VALID,0,VALID,24.1793,VALID,134,VALID,0,
2010-12-03, 02:38:04,VALID,1005.44,VALID,0,VALID,103.878,VALID,0.105969,VALID,24.1599,VALID,134,VALID,0,
2010-12-03, 02:39:04,VALID,1005.45,VALID,0,VALID,103.878,VALID,0,VALID,24.2007,VALID,134,VALID,0.333984,
2010-12-03, 02:40:04,VALID,1005.47,VALID,0,VALID,103.893,VALID,0.105969,VALID,24.1599,VALID,134,VALID,0.447266,
2010-12-03, 02:41:04,VALID,1005.47,VALID,0,VALID,103.878,VALID,0,VALID,24.1599,VALID,134,VALID,0.424219,
2010-12-03, 02:42:04,VALID,1005.5,VALID,0,VALID,103.87,VALID,0.105969,VALID,24.1793,VALID,134,VALID,0.316406,
2010-12-03, 02:43:04,VALID,1005.52,VALID,0,VALID,103.87,VALID,0.105969,VALID,24.1793,VALID,112,VALID,1.01445,
2010-12-03, 02:44:04,VALID,1005.52,VALID,0,VALID,103.87,VALID,0.105969,VALID,24.1599,VALID,98,VALID,0.861719,
2010-12-03, 02:45:04,VALID,1005.5,VALID,0,VALID,103.87,VALID,0.105969,VALID,24.1793,VALID,98,VALID,0.789844,
2010-12-03, 02:46:04,VALID,1005.49,VALID,0,VALID,103.893,VALID,0.105969,VALID,24.1793,VALID,98,VALID,0.713672,
2010-12-03, 02:47:04,VALID,1005.51,VALID,0,VALID,103.886,VALID,0.105969,VALID,24.1599,VALID,88,VALID,0.486719,
2010-12-03, 02:48:04,VALID,1005.51,VALID,0,VALID,103.878,VALID,0.105969,VALID,24.2007,VALID,88,VALID,0.272656,
2010-12-03, 02:49:04,VALID,1005.49,VALID,0,VALID,103.87,VALID,0,VALID,24.2007,VALID,88,VALID,0.726563,
2010-12-03, 02:50:04,VALID,1005.51,VALID,0,VALID,103.878,VALID,0.105969,VALID,24.1988,VALID,122,VALID,0.122656,
2010-12-03, 02:51:04,VALID,1005.52,VALID,0,VALID,103.87,VALID,0.105969,VALID,24.1793,VALID,122,VALID,0,
2010-12-03, 02:52:04,VALID,1005.52,VALID,0,VALID,103.886,VALID,0.105969,VALID,24.1793,VALID,122,VALID,0.0304688,
2010-12-03, 02:53:04,VALID,1005.51,VALID,0,VALID,103.878,VALID,0.105969,VALID,24.1385,VALID,122,VALID,0.352734,
2010-12-03, 02:54:04,VALID,1005.51,VALID,0,VALID,103.886,VALID,0,VALID,24.1812,VALID,122,VALID,0.315234,
2010-12-03, 02:55:04,VALID,1005.49,VALID,0,VALID,103.893,VALID,0,VALID,24.1812,VALID,84,VALID,0.492969,
2010-12-03, 02:56:04,VALID,1005.47,VALID,0,VALID,103.886,VALID,0,VALID,24.1617,VALID,85,VALID,0.521875,
2010-12-03, 02:57:04,VALID,1005.42,VALID,0,VALID,103.886,VALID,0,VALID,24.1617,VALID,85,VALID,0.530469,
2010-12-03, 02:58:04,VALID,1005.41,VALID,0,VALID,103.893,VALID,0,VALID,24.1422,VALID,85,VALID,0.357031,
2010-12-03, 02:59:04,VALID,1005.4,VALID,0,VALID,103.886,VALID,0,VALID,24.1617,VALID,85,VALID,0.230078,
2010-12-03, 03:00:04,VALID,1005.39,VALID,0,VALID,103.893,VALID,0,VALID,24.1617,VALID,85,VALID,0.0414063,
2010-12-03, 03:01:04,VALID,1005.36,VALID,0,VALID,103.87,VALID,0,VALID,24.1617,VALID,85,VALID,0.000390625,
2010-12-03, 03:02:04,VALID,1005.36,VALID,0,VALID,103.863,VALID,0,VALID,24.1617,VALID,118,VALID,0.466016,
2010-12-03, 03:03:04,VALID,1005.34,VALID,0,VALID,103.848,VALID,0,VALID,24.1422,VALID,118,VALID,0.173047,
2010-12-03, 03:04:04,VALID,1005.32,VALID,0,VALID,103.886,VALID,0,VALID,24.1422,VALID,118,VALID,0.469141,
2010-12-03, 03:05:04,VALID,1005.33,VALID,0,VALID,103.87,VALID,0,VALID,24.144,VALID,118,VALID,0.279297,
2010-12-03, 03:06:04,VALID,1005.32,VALID,0,VALID,103.909,VALID,0,VALID,24.1245,VALID,118,VALID,0.204688,
2010-12-03, 03:07:04,VALID,1005.3,VALID,0,VALID,103.909,VALID,0,VALID,24.1032,VALID,118,VALID,0.0507813,
2010-12-03, 03:08:04,VALID,1005.28,VALID,0,VALID,103.886,VALID,0,VALID,24.0837,VALID,118,VALID,0,
2010-12-03, 03:09:04,VALID,1005.3,VALID,0,VALID,103.893,VALID,0,VALID,24.0837,VALID,118,VALID,0.346875,
2010-12-03, 03:10:04,VALID,1005.27,VALID,0,VALID,103.886,VALID,0,VALID,24.0837,VALID,118,VALID,0.176172,
2010-12-03, 03:11:04,VALID,1005.27,VALID,0,VALID,103.893,VALID,0,VALID,24.0837,VALID,118,VALID,0.130859,
2010-12-03, 03:12:04,VALID,1005.23,VALID,0,VALID,103.893,VALID,0,VALID,24.0643,VALID,118,VALID,0,
2010-12-03, 03:13:04,VALID,1005.22,VALID,0,VALID,103.87,VALID,0,VALID,24.0643,VALID,118,VALID,0,
2010-12-03, 03:14:04,VALID,1005.22,VALID,0,VALID,103.886,VALID,0,VALID,24.0856,VALID,118,VALID,0,
2010-12-03, 03:15:04,VALID,1005.19,VALID,0,VALID,103.893,VALID,0,VALID,24.0661,VALID,118,VALID,0,
2010-12-03, 03:16:04,VALID,1005.16,VALID,0,VALID,103.878,VALID,0,VALID,24.0448,VALID,118,VALID,0,
2010-12-03, 03:17:04,VALID,1005.18,VALID,0,VALID,103.886,VALID,0,VALID,24.0448,VALID,118,VALID,0.325781,
2010-12-03, 03:18:04,VALID,1005.16,VALID,0,VALID,103.878,VALID,0,VALID,24.0448,VALID,118,VALID,0.246484,
2010-12-03, 03:19:04,VALID,1005.17,VALID,0,VALID,103.909,VALID,0,VALID,24.0253,VALID,118,VALID,0.00898437,
2010-12-03, 03:20:04,VALID,1005.19,VALID,0,VALID,103.901,VALID,0,VALID,24.0058,VALID,118,VALID,0,
2010-12-03, 03:21:04,VALID,1005.21,VALID,0,VALID,103.909,VALID,0,VALID,23.9863,VALID,118,VALID,0,
2010-12-03, 03:22:04,VALID,1005.23,VALID,0,VALID,103.901,VALID,0,VALID,23.9863,VALID,118,VALID,0,
2010-12-03, 03:23:04,VALID,1005.24,VALID,0,VALID,103.886,VALID,0,VALID,23.9668,VALID,118,VALID,0,
2010-12-03, 03:24:04,VALID,1005.23,VALID,0,VALID,103.893,VALID,0,VALID,23.9455,VALID,118,VALID,0,
2010-12-03, 03:25:04,VALID,1005.22,VALID,0,VALID,103.893,VALID,0,VALID,23.9455,VALID,118,VALID,0,
2010-12-03, 03:26:04,VALID,1005.22,VALID,0,VALID,103.878,VALID,0.105969,VALID,23.9455,VALID,118,VALID,0,
2010-12-03, 03:27:04,VALID,1005.19,VALID,0,VALID,103.87,VALID,0,VALID,23.926,VALID,118,VALID,0,
2010-12-03, 03:28:04,VALID,1005.19,VALID,0,VALID,103.886,VALID,0.105969,VALID,23.926,VALID,118,VALID,0,
2010-12-03, 03:29:04,VALID,1005.17,VALID,0,VALID,103.87,VALID,0.105969,VALID,23.926,VALID,118,VALID,0,
2010-12-03, 03:30:04,VALID,1005.15,VALID,0,VALID,103.863,VALID,0,VALID,23.9065,VALID,118,VALID,0,
2010-12-03, 03:31:04,VALID,1005.16,VALID,0,VALID,103.87,VALID,0.105969,VALID,23.8871,VALID,118,VALID,0,
2010-12-03, 03:32:04,VALID,1005.14,VALID,0,VALID,103.84,VALID,0.105969,VALID,23.8871,VALID,118,VALID,0,
2010-12-03, 03:33:04,VALID,1005.16,VALID,0,VALID,103.863,VALID,0,VALID,23.8871,VALID,118,VALID,0,
2010-12-03, 03:34:04,VALID,1005.14,VALID,0,VALID,103.832,VALID,0,VALID,23.8871,VALID,118,VALID,0.126953,
2010-12-03, 03:35:04,VALID,1005.15,VALID,0,VALID,103.84,VALID,0.105969,VALID,23.9278,VALID,118,VALID,0,
2010-12-03, 03:36:04,VALID,1005.17,VALID,0,VALID,103.84,VALID,0,VALID,23.8871,VALID,118,VALID,0,
2010-12-03, 03:37:04,VALID,1005.16,VALID,0,VALID,103.802,VALID,0,VALID,23.8871,VALID,118,VALID,0.166797,
2010-12-03, 03:38:04,VALID,1005.16,VALID,0,VALID,103.832,VALID,0.105969,VALID,23.8871,VALID,118,VALID,0,
2010-12-03, 03:39:04,VALID,1005.14,VALID,0,VALID,103.832,VALID,0,VALID,23.8889,VALID,118,VALID,0.130859,
2010-12-03, 03:40:04,VALID,1005.15,VALID,0,VALID,103.825,VALID,0,VALID,23.8907,VALID,118,VALID,0.176953,
2010-12-03, 03:41:04,VALID,1005.14,VALID,0,VALID,103.832,VALID,0,VALID,23.8499,VALID,118,VALID,0.189844,
2010-12-03, 03:42:04,VALID,1005.14,VALID,0,VALID,103.848,VALID,0,VALID,23.8694,VALID,118,VALID,0.178906,
2010-12-03, 03:43:04,VALID,1005.14,VALID,0,VALID,103.817,VALID,0,VALID,23.8499,VALID,118,VALID,0.251563,
2010-12-03, 03:44:04,VALID,1005.11,VALID,0,VALID,103.809,VALID,0,VALID,23.8499,VALID,118,VALID,0.494141,
2010-12-03, 03:45:04,VALID,1005.11,VALID,0,VALID,103.794,VALID,0,VALID,23.8712,VALID,88,VALID,0.428906,
2010-12-03, 03:46:04,VALID,1005.13,VALID,0,VALID,103.771,VALID,0,VALID,23.8694,VALID,51,VALID,0.6375,